Weather History for EGLC - March, 2014

Change the Weather History Date:

Saturday, March 15, 2014

  Actual Average (WUND) Record (WUND)
Temperature  
Mean Temperature 56 °F -  
Max Temperature 64 °F - - (-1)
Min Temperature 48 °F - - (-1)
Degree Days  
Heating Degree Days 9    
Growing Degree Days 6 (Base 50)    
Moisture  
Dew Point 40 °F    
Average Humidity 60    
Maximum Humidity 82    
Minimum Humidity 32    
Precipitation  
Precipitation 0.00 in - - ()
Sea Level Pressure  
Sea Level Pressure 30.29 in    
Wind  
Wind Speed 12 mph ()    
Max Wind Speed 18 mph    
Max Gust Speed -    
Visibility 6.0 miles    
Events      
Averages and records for this station are not official NWS values.
T = Trace of Precipitation, MM = Missing Value Source: Averaged Metar Reports

Daily Weather History Graph

Daily Weather History Graph

Search for Another Location

Airport or City:

Trip Planner

Search our weather history database for the weather conditions in past years. The results will help you decide how hot, cold, wet, or windy it might be!

Date:

Astronomy

Mar. 15, 2014 Rise Set
Actual Time 6:14 AM GMT 6:04 PM GMT
Civil Twilight 5:41 AM GMT 6:37 PM GMT
Nautical Twilight 5:02 AM GMT 7:16 PM GMT
Astronomical Twilight 4:22 AM GMT 7:56 PM GMT
Moon 5:06 PM GMT (3/15) 5:23 AM GMT (3/15)
Length of Visible Light 12h 56m
Length of Day
11h 49m
Waxing Gibbous, 99% of the Moon is Illuminated
Mar 15
Waxing Gibbous
Mar 16
Full
Mar 24
Last Quarter
Mar 30
New
Apr 7
First Quarter

Hourly Weather History & Observations

Time (GMT) Temp. Dew Point Humidity Pressure Visibility Wind Dir Wind Speed Gust Speed Precip Events Conditions
12:20 AM 48.2 °F 42.8 °F 82% 30.27 in 3.7 mi West 11.5 mph - N/A   Unknown
12:50 AM 48.2 °F 42.8 °F 82% 30.27 in 3.7 mi West 12.7 mph - N/A   Unknown
1:20 AM 48.2 °F 42.8 °F 82% 30.27 in 5.0 mi West 12.7 mph - N/A   Unknown
1:50 AM 48.2 °F 42.8 °F 82% 30.27 in 5.6 mi West 11.5 mph - N/A   Unknown
2:20 AM 48.2 °F 42.8 °F 82% 30.27 in 6.2 mi West 12.7 mph - N/A   Unknown
2:50 AM 48.2 °F 42.8 °F 82% 30.27 in 6.2 mi West 11.5 mph - N/A   Unknown
3:20 AM 50.0 °F 42.8 °F 76% 30.27 in 6.2 mi West 11.5 mph - N/A   Unknown
3:50 AM 50.0 °F 42.8 °F 76% 30.27 in 6.2 mi West 13.8 mph - N/A   Partly Cloudy
4:20 AM 50.0 °F 41.0 °F 71% 30.30 in 6.2 mi WNW 13.8 mph - N/A   Unknown
4:50 AM 50.0 °F 42.8 °F 76% 30.30 in 6.2 mi West 13.8 mph - N/A   Unknown
5:20 AM 50.0 °F 41.0 °F 71% 30.30 in 6.2 mi WNW 11.5 mph - N/A   Unknown
5:50 AM 50.0 °F 41.0 °F 71% 30.30 in 6.2 mi WNW 10.4 mph - N/A   Unknown
6:20 AM 50.0 °F 41.0 °F 71% 30.30 in - WNW 11.5 mph - N/A   Clear
6:50 AM 50.0 °F 41.0 °F 71% 30.33 in - West 12.7 mph - N/A   Clear
7:20 AM 50.0 °F 41.0 °F 71% 30.33 in - WNW 12.7 mph - N/A   Clear
7:50 AM 50.0 °F 41.0 °F 71% 30.33 in - WNW 11.5 mph - N/A   Clear
8:20 AM 51.8 °F 41.0 °F 67% 30.36 in - WNW 13.8 mph - N/A   Clear
8:50 AM 51.8 °F 41.0 °F 67% 30.36 in - WNW 11.5 mph - N/A   Clear
9:20 AM 51.8 °F 41.0 °F 67% 30.36 in - WNW 11.5 mph - N/A   Clear
9:50 AM 53.6 °F 39.2 °F 58% 30.36 in - WNW 17.3 mph - N/A   Clear
10:20 AM 53.6 °F 39.2 °F 58% 30.36 in - NW 16.1 mph - N/A   Clear
10:50 AM 55.4 °F 39.2 °F 54% 30.33 in - WNW 12.7 mph - N/A   Clear
11:20 AM 55.4 °F 37.4 °F 51% 30.33 in - West 15.0 mph - N/A   Clear
11:50 AM 55.4 °F 39.2 °F 54% 30.33 in - WNW 13.8 mph - N/A   Clear
12:20 PM 59.0 °F 37.4 °F 45% 30.30 in - WNW 17.3 mph - N/A   Clear
12:50 PM 59.0 °F 37.4 °F 45% 30.30 in - WNW 15.0 mph - N/A   Clear
1:20 PM 60.8 °F 35.6 °F 39% 30.30 in 6.2 mi WNW 16.1 mph - N/A   Unknown
1:50 PM 62.6 °F 35.6 °F 37% 30.27 in 6.2 mi West 18.4 mph - N/A   Unknown
2:20 PM 62.6 °F 35.6 °F 37% 30.27 in 6.2 mi West 13.8 mph - N/A   Unknown
2:50 PM 62.6 °F 37.4 °F 39% 30.27 in 6.2 mi WNW 13.8 mph - N/A   Unknown
3:20 PM 64.4 °F 33.8 °F 32% 30.27 in 6.2 mi WNW 16.1 mph - N/A   Unknown
3:50 PM 62.6 °F 33.8 °F 34% 30.24 in 6.2 mi West 16.1 mph - N/A   Unknown
4:20 PM 62.6 °F 33.8 °F 34% 30.24 in 6.2 mi WNW 17.3 mph - N/A   Unknown
4:50 PM 60.8 °F 39.2 °F 45% 30.27 in 6.2 mi West 11.5 mph - N/A   Unknown
5:20 PM 60.8 °F 41.0 °F 48% 30.24 in 6.2 mi West 16.1 mph - N/A   Unknown
5:50 PM 59.0 °F 39.2 °F 48% 30.24 in 6.2 mi West 18.4 mph - N/A   Unknown
6:20 PM 59.0 °F 39.2 °F 48% 30.27 in 6.2 mi West 13.8 mph - N/A   Unknown
6:50 PM 57.2 °F 41.0 °F 55% 30.27 in 6.2 mi West 15.0 mph - N/A   Unknown
7:20 PM 57.2 °F 42.8 °F 59% 30.27 in 6.2 mi West 15.0 mph - N/A   Unknown
7:50 PM 57.2 °F 41.0 °F 55% 30.27 in 6.2 mi West 15.0 mph - N/A   Unknown
8:20 PM 55.4 °F 42.8 °F 63% 30.27 in 6.2 mi West 15.0 mph - N/A   Unknown
8:50 PM 55.4 °F 42.8 °F 63% 30.27 in 6.2 mi West 16.1 mph - N/A   Unknown
9:20 PM 55.4 °F 41.0 °F 58% 30.27 in 6.2 mi West 15.0 mph - N/A   Unknown
9:50 PM 53.6 °F 41.0 °F 62% 30.27 in 6.2 mi West 12.7 mph - N/A   Unknown
10:20 PM 53.6 °F 41.0 °F 62% 30.27 in 6.2 mi West 11.5 mph - N/A   Unknown
10:50 PM 53.6 °F 41.0 °F 62% 30.27 in 6.2 mi West 12.7 mph - N/A   Unknown
11:20 PM 51.8 °F 41.0 °F 67% 30.27 in 6.2 mi West 11.5 mph - N/A   Unknown
11:50 PM 51.8 °F 41.0 °F 67% 30.27 in 6.2 mi West 12.7 mph - N/A   Unknown